Miscellaneous Local Product
Issued by NWS Hastings, NE

Home | Current Version | Previous Version | Text Only | Print | Product List | Glossary On
Versions: 1 2 3 4 5 6 7 8 9 10 11 12 13 14 15 16 17 18 19 20 21 22 23 24 25 26 27 28 29 30 31 32 33 34 35 36 37 38 39 40 41 42 43 44 45 46 47 48 49 50
000
AXUS43 KGID 190102
MISGRI

GID CWA HOURLY WEATHER ROUNDUP
NATIONAL WEATHER SERVICE HASTINGS NE
700 PM CST THU JAN 18 2018

NOTE: "FAIR" INDICATES FEW OR NO CLOUDS BELOW 12,000 FEET WITH NO
SIGNIFICANT WEATHER AND/OR OBSTRUCTIONS TO VISIBILITY.

...SOUTH CENTRAL NEBRASKA...

CITY           SKY/WX    TMP DP  RH WIND       PRES   REMARKS
GRAND ISLAND   CLOUDY    36  30  79 SW9       29.90F WCI  29
KEARNEY        CLOUDY    40  28  62 SW10      29.91F WCI  33
HASTINGS       CLOUDY    39  27  62 SW6       29.91F WCI  35
ORD            MOCLDY    33  28  81 S5        29.86S WCI  29
YORK           CLOUDY    34  32  93 SW8       29.91F WCI  27
AURORA         CLOUDY    34  29  82 SW6       29.90F WCI  29
LEXINGTON      MOCLDY    37  29  72 S6        29.90F WCI  32
HOLDREGE       CLOUDY    40  26  58 CALM      29.92S
HEBRON         CLOUDY    38  28  67 S9        29.94S WCI  32

...NEBRASKA PANHANDLE...

CITY           SKY/WX    TMP DP  RH WIND       PRES   REMARKS
CHADRON        CLOUDY    36  29  75 CALM      29.83F
ALLIANCE       MOCLDY    37  31  78 W6        29.86F WCI  32
SCOTTSBLUFF    CLOUDY    44  31  60 NW9       29.89R
SIDNEY         CLOUDY    35  22  58 SW9       29.92S WCI  28

...WESTERN AND NORTH CENTRAL NEBRASKA...

CITY           SKY/WX    TMP DP  RH WIND       PRES   REMARKS
VALENTINE      CLOUDY    38  29  70 W7        29.82S WCI  33
AINSWORTH      CLOUDY    36  31  82 SW6       29.83S WCI  31
ONEILL         MOCLDY    33  30  88 S5        29.83S WCI  29
BROKEN BOW     MOCLDY    41  29  62 SW3       29.88R
IMPERIAL       CLOUDY    38  26  62 S5        29.91F WCI  34
NORTH PLATTE   CLOUDY    33  26  75 CALM      29.90S
MCCOOK         CLOUDY    43  25  49 CALM      29.92F

...EASTERN NEBRASKA...

CITY           SKY/WX    TMP DP  RH WIND       PRES   REMARKS
NORFOLK        CLOUDY    33  29  85 S8        29.84S WCI  26
SO SIOUX CITY  CLOUDY    32  25  75 SE5       29.87F WCI  27
TEKAMAH        CLOUDY    31  24  75 S12       29.90F WCI  22
COLUMBUS       CLOUDY    37  29  72 S7        29.90F WCI  32
ALBION         CLOUDY    35  29  78 CALM      29.87S
OMAHA EPPLEY   CLOUDY    29  21  72 S10       29.96R WCI  20
OFFUTT AFB     CLOUDY    29  20  70 S3        29.96R
MILLARD        CLOUDY    32  25  74 S6        29.96R WCI  26
LINCOLN        CLOUDY    30  23  75 S7        29.95S WCI  23
NEBRASKA CITY  CLOUDY    34  26  71 SW13      29.96S WCI  25
BEATRICE       CLOUDY    34  26  70 S9        29.96S WCI  27
FALLS CITY     CLOUDY    35  25  66 S9        29.99S WCI  28

...NORTHERN KANSAS...

CITY           SKY/WX    TMP DP  RH WIND       PRES   REMARKS
GOODLAND       CLOUDY    49  11  21 SW9       29.95S
HILL CITY      CLOUDY    47  17  30 SW8       29.95S
NORTON         CLEAR     37  19  48 CALM      29.92
PHILLIPSBURG   CLEAR     39  19  45 CALM      29.94F
SMITH CENTER     N/A     39  19  45 SE7       29.95S WCI  34
BELOIT         CLEAR     43  21  42 SE8       29.96S
HAYS           CLOUDY    42  17  36 S6        29.99R
RUSSELL        CLOUDY    45  23  42 S15       29.96R
CONCORDIA      CLOUDY    42  25  50 S20       29.95F
SALINA         CLOUDY    40  26  57 S9        30.01S WCI  34
TOPEKA         CLOUDY    38  25  59 S3        30.06R



USA.gov is the U.S. government's official web portal to all federal, state and local government web resources and services.